Hourly Data Report for September 27, 2017

All times are specified in Local Standard Time (LST). Add 1 hour to adjust for Daylight Saving Time where and when it is observed.

NAPPAN AUTO
NOVA SCOTIA

45°45'34.400" N
64°14'29.200" W
19.80 m
8203702
71311
XNP

Download Data

Hourly Data (September 2017)
Hourly Data Report for September 27, 2017
Temp Definition
°C
Dew Point Temp Definition
°C
Rel Hum Definition
%
Wind Dir Definition
10's deg

Wind Spd Definition
km/h
Visibility Definition
km
Stn Press Definition
kPa
Hmdx Definition


Wind Chill Definition


Weather Definition


TIME
00:00 15.4 14.0 91 6 9   101.51     LegendNANA
01:00 15.1 13.4 89 6 10   101.52     LegendNANA
02:00 14.8 13.1 89 6 8   101.47     LegendNANA
03:00 14.6 13.1 91 2 8   101.46     LegendNANA
04:00 14.8 12.9 89 11 3   101.47     LegendNANA
05:00 14.7 12.7 88 9 6   101.41     LegendNANA
06:00 14.6 12.3 86 8 8   101.41     LegendNANA
07:00 14.6 12.2 85 10 9   101.38     LegendNANA
08:00 14.9 12.5 85 14 7   101.31     LegendNANA
09:00 16.6 14.4 87 17 8   101.24     LegendNANA
10:00 17.9 15.3 85 18 19   101.18     LegendNANA
11:00 18.6 16.0 85 18 24   101.10     LegendNANA
12:00 19.8 17.0 84 18 23   101.04     LegendNANA
13:00 21.5 17.8 80 18 21   100.95 27   LegendNANA
14:00 20.9 17.8 83 20 23   100.89 27   LegendNANA
15:00 20.9 18.0 84 20 23   100.84 27   LegendNANA
16:00 21.5 18.5 83 20 17   100.78 28   LegendNANA
17:00 20.2 18.0 87 25 15   100.74 26   LegendNANA
18:00 20.7 18.6 88 20 12   100.66 27   LegendNANA
19:00 20.1 18.2 89 20 19   100.65 26   LegendNANA
20:00 18.7 17.6 93 18 18   100.60     LegendNANA
21:00 18.6 17.5 93 20 18   100.53     LegendNANA
22:00 19.4 18.0 92 18 16   100.44     LegendNANA
23:00 20.3 18.7 91 20 24   100.38 27   LegendNANA

Notes on Data Quality.

Legend

  • E = Estimated
  • M = Missing
  • NA = Not Available
  • ‡ = Partner data that is not subject to review by the National Climate Archives
Date modified: